Wetbulb
57.35 58.12 57.72 57.77 57.56 55.76 56.32 55.73 54.57 56.04 58.89 58.85 57.70 58.91 58.05 59.87 60.55 60.79 61.61 64.15 63.98 64.38 63.47 62.51 61.94 60.54 59.89 58.91 58.72 56.48 53.83 50.97 50.60 47.82 49.19 50.43 51.00 49.76 48.83 48.66 47.81 47.84 47.49
57.22 57.49 56.53 57.60 57.45 56.99 57.15 57.94 58.54 58.59 59.78 60.12 60.50 60.70 59.71 59.17 60.29 61.19 62.62 64.40 63.76 63.87 63.07 62.11 61.21 60.31 59.68 58.87 57.27 55.48 52.31 52.16 51.16 48.05 48.71 46.43 47.06 48.31 49.30 48.00 47.76 46.41 47.23
56.01 56.99 57.26 57.44 58.49 58.53 58.40 58.97 59.84 59.70 60.69 62.01 62.46 62.09 60.75 59.47 58.39 59.90 62.50 63.66 64.16 63.54 63.09 62.36 61.75 60.61 59.90 57.80 56.48 55.42 53.24 49.85 49.52 49.86 47.64 43.75 43.25 43.50 47.35 47.17 47.08 47.12 46.10
57.92 58.19 58.76 58.45 58.95 59.81 60.79 61.38 61.20 61.15 61.11 63.03 62.10 61.62 59.41 57.77 58.02 58.81 61.96 63.30 63.73 63.14 63.39 63.05 61.86 60.43 59.02 57.25 56.11 55.60 53.35 51.45 48.66 49.05 49.85 48.94 47.39 41.12 39.87 45.27 45.96 46.90 46.08
57.66 58.68 59.30 60.59 60.76 61.56 61.70 61.80 61.68 61.80 62.48 62.80 62.92 61.37 60.60 59.38 60.74 59.92 61.68 61.95 62.83 63.38 62.85 62.24 61.06 59.75 59.01 58.00 56.30 55.01 53.98 50.93 48.96 49.24 47.86 48.57 48.40 45.95 42.60 39.26 42.33 44.91 45.11
57.94 58.63 59.66 61.07 61.34 62.40 62.60 62.20 62.14 62.20 63.28 62.73 62.08 61.89 60.75 60.76 60.26 61.03 61.19 61.47 61.58 61.84 61.32 61.42 59.80 59.29 58.03 57.42 56.39 54.31 52.37 48.65 48.68 47.89 46.67 45.92 45.35 44.49 43.95 41.99 41.08 40.57 43.02
57.55 58.56 58.56 58.37 60.39 61.43 61.86 62.46 62.75 62.14 62.93 63.38 62.73 62.45 62.25 62.64 61.46 61.24 60.41 59.60 59.38 59.13 59.20 59.89 58.58 57.44 56.91 54.97 53.27 51.41 50.37 48.17 46.66 46.09 45.89 47.06 46.03 46.39 45.03 42.98 40.38 39.15 41.23
58.05 58.40 59.46 59.38 59.09 60.13 62.18 62.48 62.56 61.94 62.70 62.88 63.39 62.91 62.66 62.36 62.23 61.77 60.98 59.54 59.00 59.16 58.32 58.05 57.25 55.03 53.53 51.87 50.57 49.58 48.42 46.72 45.55 44.16 46.70 45.86 44.77 46.21 45.52 42.37 40.35 36.79 37.82
58.24 58.61 59.49 60.59 60.71 60.65 60.98 61.91 62.43 62.56 62.49 63.02 63.20 62.04 61.27 61.91 62.23 61.55 60.82 60.08 59.23 58.86 57.74 57.05 52.92 51.94 50.57 49.60 48.64 47.18 45.06 45.08 46.02 45.98 45.57 44.69 45.67 46.14 45.29 44.43 42.38 38.77 33.71
57.66 58.29 59.56 60.16 60.78 61.85 61.97 62.17 62.51 62.13 62.79 63.03 63.45 62.54 59.95 60.71 62.74 62.38 60.98 60.63 59.56 57.91 55.74 52.60 51.52 50.10 49.01 49.48 47.06 45.46 44.84 45.21 45.48 45.73 44.87 44.74 45.28 45.31 45.11 42.15 42.33 40.66 37.14
57.30 58.05 58.80 60.31 60.97 61.79 62.43 63.01 63.51 63.27 63.11 63.84 63.74 62.72 62.23 61.72 62.10 60.83 60.23 60.33 58.29 54.45 52.25 51.39 50.44 49.29 48.64 48.07 46.25 44.86 44.07 44.08 43.51 45.30 44.58 44.44 44.97 44.31 42.46 42.14 40.88 39.77 38.90
57.13 58.64 59.58 60.23 60.27 60.95 62.85 64.54 64.69 64.76 63.56 63.49 63.36 62.90 62.73 61.98 59.97 59.60 58.99 57.93 54.07 52.79 51.65 51.04 49.84 48.73 47.88 47.09 45.17 42.86 42.92 44.59 43.49 43.64 44.13 43.80 44.60 42.07 43.15 41.12 39.99 39.26 38.71
55.42 57.45 59.55 60.13 60.62 61.34 61.86 63.06 64.54 64.66 63.16 64.26 63.09 62.56 61.30 59.65 58.55 56.99 55.59 55.37 54.25 53.19 50.63 49.43 47.87 47.51 46.25 44.92 43.29 43.88 44.02 43.35 43.45 43.62 43.08 43.13 43.29 42.88 42.16 42.46 40.19 40.00 41.26
54.62 55.52 58.58 60.09 61.17 61.78 62.24 62.85 63.19 64.16 63.59 63.29 61.94 59.21 57.81 56.58 54.94 53.51 51.64 50.38 49.51 47.90 47.30 47.79 47.03 45.22 44.15 44.12 44.47 43.66 42.75 42.39 42.83 43.20 42.99 43.17 43.02 42.80 42.13 41.19 39.51 40.24 39.32
53.73 54.82 56.77 59.64 61.10 61.62 62.15 62.56 61.77 61.74 61.94 61.26 58.98 56.95 56.74 56.39 55.00 53.27 52.46 50.86 49.88 48.26 45.87 44.74 44.22 44.19 43.55 43.43 43.05 42.80 41.86 41.36 40.97 42.20 42.87 42.53 42.70 42.16 41.35 41.23 38.20 37.02 37.00
53.17 55.24 56.64 59.83 60.57 60.93 61.43 60.90 59.82 59.78 60.17 57.61 56.54 56.29 55.82 55.38 54.59 53.33 51.66 50.21 47.47 45.52 44.67 43.60 42.50 41.19 43.01 40.04 40.74 41.22 41.91 42.21 41.23 40.23 41.33 41.33 41.44 41.29 38.98 38.45 38.33 38.24 36.63
55.10 56.55 57.90 60.00 60.46 60.46 59.71 58.79 58.47 58.34 56.59 55.10 54.31 53.05 51.56 49.39 48.33 47.28 46.51 45.59 44.15 44.25 42.54 42.15 42.49 42.77 43.08 39.42 39.09 38.08 40.42 40.33 40.38 39.94 39.78 40.57 40.97 38.17 38.71 37.85 36.88 35.69 36.26
55.34 56.99 58.46 58.92 58.74 58.66 57.91 57.10 56.43 54.68 53.26 51.85 50.89 49.80 48.43 46.86 46.23 45.85 44.85 44.00 43.94 43.23 42.89 42.67 43.68 43.78 40.94 38.77 38.75 37.87 39.38 39.04 39.14 38.71 37.82 36.77 36.66 37.21 36.97 35.49 33.78 34.94 35.97
55.90 56.24 57.00 57.47 56.97 55.62 55.42 54.37 52.99 51.81 50.51 49.41 48.88 48.46 47.78 46.86 46.43 45.21 44.58 44.90 44.89 44.33 43.68 43.17 42.59 41.18 41.68 38.01 37.86 37.27 37.95 37.03 36.11 37.81 36.83 37.08 35.99 36.68 36.27 34.23 33.35 34.10 34.71
54.73 54.39 54.82 54.63 53.87 53.46 53.23 51.53 50.19 49.76 48.64 48.69 48.54 48.81 48.28 47.06 45.72 45.07 44.69 43.85 43.66 43.21 43.12 42.90 42.55 38.72 39.00 37.16 35.79 35.74 34.19 32.41 31.00 32.88 34.21 34.50 34.53 34.60 34.77 32.17 31.91 31.11 32.34
52.92 53.33 52.91 51.79 51.89 52.39 51.66 49.77 48.96 47.85 48.63 48.68 48.10 47.34 46.68 45.52 45.13 44.39 43.95 43.36 41.84 41.30 38.32 37.48 37.97 38.87 35.65 33.76 33.58 32.81 29.81 27.27 27.67 28.22 28.63 29.27 32.50 32.04 31.42 30.90 28.29 29.00 31.62
51.30 51.84 50.88 50.66 51.15 51.45 50.25 48.32 46.95 47.80 47.33 46.50 45.08 44.85 44.91 43.96 43.18 40.98 40.06 39.57 39.29 37.42 35.70 34.76 34.05 34.54 32.88 32.04 31.76 30.14 29.47 29.36 26.57 26.32 27.12 27.91 30.17 30.19 30.02 29.81 30.20 31.20 30.99
49.99 50.94 50.21 49.63 50.09 50.39 49.66 46.97 46.12 46.38 45.34 44.66 42.50 40.58 40.98 41.09 40.97 39.61 38.20 37.55 36.81 33.71 31.43 30.52 30.70 30.63 30.66 30.50 29.15 28.04 27.67 27.95 25.60 26.55 27.69 27.96 28.74 29.23 28.91 30.56 30.73 28.95 28.24
49.46 50.01 49.27 48.05 47.67 48.53 48.19 46.56 46.03 45.62 43.34 40.47 39.81 39.66 38.46 38.05 37.86 37.08 36.03 34.81 31.57 30.40 29.69 29.25 28.28 28.19 28.54 25.44 24.45 24.05 23.88 25.51 25.36 25.16 24.10 24.37 26.13 27.26 28.49 29.15 30.16 30.74 30.37
49.70 49.36 47.80 46.72 46.37 46.88 45.52 45.35 44.73 43.30 41.09 39.98 38.67 36.60 35.80 35.29 34.36 30.94 31.35 29.06 27.45 27.85 27.55 26.90 26.86 24.51 23.19 22.54 23.32 22.83 22.63 22.40 23.56 21.92 22.67 23.99 24.18 24.10 24.24 24.47 25.76 27.24 26.43
48.85 47.80 47.02 46.02 44.88 43.98 42.88 42.52 42.65 41.61 39.04 36.28 34.68 33.56 32.91 32.35 33.38 30.60 28.32 29.63 27.98 27.73 26.91 25.92 24.93 25.24 24.23 23.09 23.20 23.34 24.15 24.42 24.95 21.87 21.03 19.70 19.57 20.53 21.34 21.81 22.10 22.87 23.49
MSLP
1011.66 1012.64 1013.25 1014.37 1015.21 1015.93 1016.56 1017.06 1017.49 1017.88 1018.35 1018.61 1018.79 1018.67 1018.29 1018.37 1018.57 1018.33 1018.37 1018.57 1018.91 1019.36 1019.87 1020.35 1020.61 1020.75 1021.10 1021.33 1021.82 1022.16 1022.67 1023.07 1023.22 1023.83 1023.78 1023.65 1023.71 1024.01 1024.04 1024.13 1024.34 1024.49 1024.77
1010.96 1011.63 1012.63 1013.53 1014.36 1015.08 1015.64 1016.20 1016.88 1017.40 1017.84 1018.04 1018.02 1017.62 1017.61 1017.84 1017.86 1017.79 1017.72 1018.20 1018.61 1018.95 1019.48 1019.95 1020.07 1020.24 1020.85 1021.10 1021.55 1021.97 1022.76 1023.06 1023.18 1023.85 1023.81 1024.05 1024.22 1024.00 1023.96 1024.00 1024.12 1024.42 1024.62
1009.67 1010.93 1011.74 1012.43 1013.14 1014.06 1014.68 1015.24 1015.62 1016.30 1016.80 1017.06 1017.07 1016.87 1016.96 1017.23 1017.41 1017.31 1017.56 1017.95 1018.48 1018.87 1019.11 1019.57 1019.66 1019.91 1020.35 1020.80 1021.23 1021.80 1022.33 1022.99 1023.21 1023.50 1023.97 1024.37 1024.18 1023.84 1023.58 1023.94 1024.15 1024.34 1024.61
1008.23 1009.58 1010.50 1011.26 1011.99 1012.43 1013.29 1013.76 1014.29 1014.96 1015.65 1015.96 1016.21 1016.05 1016.26 1016.47 1016.62 1016.83 1017.22 1017.62 1018.01 1018.55 1018.83 1018.85 1019.21 1019.53 1020.10 1020.64 1020.98 1021.50 1022.11 1022.57 1023.17 1023.64 1023.75 1024.18 1024.32 1024.46 1024.67 1024.31 1024.20 1024.12 1024.37
1006.39 1007.69 1008.69 1009.36 1010.31 1010.93 1011.73 1012.37 1012.99 1013.60 1014.26 1014.77 1014.98 1015.38 1015.49 1015.72 1015.74 1016.13 1016.22 1016.66 1017.46 1018.32 1018.75 1018.65 1018.92 1019.46 1019.81 1020.27 1020.90 1021.42 1021.85 1022.30 1023.06 1023.48 1023.82 1024.03 1023.99 1024.36 1024.57 1024.86 1024.41 1024.36 1024.07
1004.74 1006.08 1007.20 1008.26 1008.92 1009.73 1010.52 1011.24 1011.74 1012.28 1012.88 1013.70 1014.22 1014.94 1015.41 1015.37 1015.83 1015.99 1016.33 1016.67 1017.28 1017.73 1018.42 1018.64 1018.98 1019.31 1019.76 1020.30 1020.55 1020.83 1021.57 1022.45 1022.92 1023.50 1023.81 1023.94 1023.86 1024.10 1024.32 1024.54 1024.49 1024.33 1023.94
1003.44 1004.50 1005.78 1006.84 1007.71 1008.48 1009.30 1010.10 1010.78 1011.31 1011.90 1012.63 1013.28 1013.86 1014.13 1014.66 1014.94 1015.75 1016.18 1016.79 1017.13 1017.93 1018.25 1018.25 1018.70 1019.28 1019.68 1020.31 1020.61 1021.21 1021.88 1022.50 1023.22 1023.78 1023.85 1023.59 1023.57 1023.55 1024.03 1024.50 1024.49 1024.31 1024.03
1002.24 1003.24 1004.19 1005.45 1006.43 1007.35 1008.15 1009.04 1009.77 1010.56 1011.11 1011.62 1012.23 1012.80 1013.02 1013.70 1014.10 1014.89 1015.82 1016.37 1016.55 1017.52 1017.97 1018.23 1018.47 1019.41 1019.68 1020.39 1020.98 1021.53 1022.23 1022.86 1023.48 1023.88 1023.60 1023.43 1023.66 1024.04 1024.23 1024.24 1024.31 1024.25 1024.08
1001.33 1002.01 1002.89 1003.87 1004.85 1005.84 1006.85 1007.81 1008.68 1009.60 1010.31 1010.69 1011.22 1011.76 1012.36 1013.97 1014.76 1015.05 1015.14 1015.80 1016.31 1017.35 1017.76 1017.87 1018.71 1019.35 1019.68 1020.44 1021.05 1021.64 1022.30 1023.00 1023.51 1023.51 1023.43 1023.48 1023.57 1023.94 1024.03 1024.06 1024.14 1024.31 1024.36
1000.94 1001.19 1001.75 1002.40 1003.25 1004.16 1005.10 1006.20 1007.09 1007.80 1008.84 1009.72 1010.92 1011.61 1012.41 1013.66 1014.18 1014.85 1015.08 1015.58 1016.17 1017.00 1017.29 1017.91 1018.66 1019.27 1019.73 1020.34 1020.98 1021.48 1022.21 1022.90 1023.27 1023.55 1023.68 1024.08 1024.35 1023.82 1023.62 1023.56 1023.61 1023.83 1024.04
1001.01 1001.32 1001.33 1001.55 1002.00 1001.99 1002.81 1004.53 1005.95 1007.06 1008.00 1009.03 1010.18 1011.43 1012.10 1012.85 1013.92 1014.38 1014.76 1015.44 1016.24 1016.81 1017.24 1017.93 1018.62 1019.23 1019.76 1020.42 1021.00 1021.38 1021.96 1022.58 1023.26 1023.76 1024.09 1024.24 1024.37 1024.06 1023.46 1023.34 1023.23 1023.43 1023.45
1000.77 1001.27 1001.77 1001.95 1002.27 1002.67 1003.18 1004.35 1005.33 1006.36 1007.91 1008.63 1009.55 1010.64 1011.34 1012.31 1013.14 1014.12 1014.67 1015.44 1016.13 1016.60 1017.15 1017.83 1018.54 1019.09 1019.65 1020.37 1020.89 1021.49 1022.09 1022.60 1023.02 1023.21 1023.77 1024.09 1023.88 1023.64 1023.17 1023.01 1022.98 1022.95 1022.98
1000.74 1001.06 1001.78 1002.53 1002.93 1003.41 1003.79 1004.29 1005.10 1005.79 1007.34 1008.16 1009.47 1010.51 1011.57 1012.53 1013.27 1013.96 1014.89 1015.48 1016.03 1016.67 1017.15 1017.70 1018.43 1019.13 1019.79 1020.47 1021.20 1021.70 1022.17 1022.30 1022.67 1023.25 1023.58 1023.65 1023.63 1023.23 1022.85 1022.66 1022.50 1022.55 1022.39
1000.40 1000.97 1001.58 1002.50 1003.18 1003.81 1004.35 1004.85 1005.52 1006.24 1007.08 1008.26 1009.59 1010.92 1011.93 1013.10 1013.96 1014.58 1015.22 1015.78 1016.35 1016.85 1017.37 1018.00 1018.65 1019.19 1019.72 1020.44 1021.06 1021.63 1021.94 1022.32 1022.59 1022.91 1023.15 1023.33 1023.16 1022.76 1022.45 1022.25 1022.09 1021.91 1021.87
1000.61 1000.80 1001.37 1002.16 1003.26 1004.28 1004.95 1005.60 1006.63 1007.13 1007.86 1009.04 1010.10 1011.23 1012.25 1013.24 1014.09 1014.88 1015.57 1016.10 1016.63 1017.14 1017.74 1018.27 1018.76 1019.21 1019.81 1020.39 1021.01 1021.58 1022.00 1022.43 1022.59 1022.66 1022.93 1022.89 1022.56 1022.19 1021.92 1021.75 1021.56 1021.48 1021.42
1000.56 1001.21 1001.37 1002.13 1003.29 1004.66 1005.54 1006.42 1007.33 1007.93 1008.58 1009.72 1010.76 1011.64 1012.30 1013.28 1014.14 1014.82 1015.62 1016.18 1016.88 1017.48 1018.01 1018.56 1019.10 1019.73 1020.17 1020.64 1021.30 1021.84 1022.19 1022.36 1022.53 1022.77 1022.74 1022.48 1021.97 1021.56 1021.08 1020.84 1020.65 1020.63 1020.57
1000.89 1001.76 1002.13 1002.61 1003.61 1004.95 1006.13 1007.20 1008.03 1008.69 1009.34 1010.27 1011.12 1011.94 1012.90 1013.80 1014.59 1015.22 1015.89 1016.55 1017.25 1017.78 1018.53 1019.04 1019.51 1020.04 1020.45 1020.97 1021.62 1021.99 1022.45 1022.66 1022.74 1022.76 1022.53 1022.11 1021.51 1021.14 1020.75 1020.45 1020.14 1019.83 1019.66
1001.45 1002.42 1002.98 1003.51 1004.69 1005.67 1006.75 1007.70 1008.61 1009.40 1010.20 1010.85 1011.84 1012.70 1013.63 1014.41 1015.10 1015.72 1016.36 1017.03 1017.53 1018.10 1018.59 1019.05 1019.48 1019.92 1020.65 1021.12 1021.64 1021.91 1022.29 1022.33 1022.15 1021.91 1021.64 1021.41 1021.12 1020.88 1020.61 1020.24 1019.84 1019.39 1019.05
1002.01 1003.09 1003.93 1004.67 1005.46 1006.35 1007.38 1008.17 1008.95 1009.70 1010.56 1011.42 1012.17 1013.00 1013.70 1014.33 1015.12 1015.76 1016.46 1016.99 1017.43 1017.89 1018.56 1019.01 1019.53 1020.01 1020.43 1020.86 1021.32 1021.72 1021.94 1021.92 1021.88 1021.79 1021.63 1021.40 1021.22 1021.00 1020.92 1020.54 1020.08 1019.18 1018.32
1002.80 1003.75 1004.68 1005.46 1006.29 1007.09 1007.77 1008.50 1009.17 1009.90 1010.73 1011.54 1012.22 1012.95 1013.69 1014.47 1015.27 1016.08 1016.68 1017.20 1017.68 1018.19 1018.64 1019.11 1019.46 1019.89 1020.31 1021.09 1021.48 1021.70 1021.89 1022.13 1022.36 1022.20 1021.92 1021.74 1021.51 1021.11 1020.95 1020.78 1020.34 1019.49 1018.87
1003.37 1004.28 1005.19 1005.90 1006.59 1007.30 1008.04 1008.99 1009.76 1010.49 1011.14 1011.90 1012.66 1013.50 1014.23 1015.02 1015.76 1016.40 1016.89 1017.24 1017.60 1018.07 1018.74 1019.22 1019.58 1019.96 1020.77 1021.46 1021.78 1021.98 1022.23 1022.66 1022.56 1022.27 1021.94 1021.76 1021.68 1021.31 1020.91 1020.49 1019.95 1019.17 1018.56
1003.72 1004.62 1005.42 1006.17 1006.89 1007.65 1008.29 1009.08 1009.96 1010.85 1011.82 1012.72 1013.52 1014.16 1014.63 1014.97 1015.55 1016.15 1016.68 1017.14 1017.81 1018.56 1019.20 1019.69 1020.11 1020.34 1021.09 1021.56 1021.96 1022.18 1022.25 1022.43 1022.49 1022.32 1021.98 1021.64 1021.44 1020.95 1020.27 1019.72 1018.93 1018.29 1017.87
1004.20 1004.91 1005.62 1006.42 1007.19 1007.91 1008.66 1009.60 1010.69 1011.49 1012.40 1013.09 1013.59 1014.20 1014.72 1015.25 1015.77 1016.45 1017.02 1017.52 1018.18 1018.95 1019.66 1020.10 1020.47 1020.89 1021.06 1021.69 1022.25 1022.45 1022.55 1022.53 1022.51 1022.26 1021.84 1021.49 1020.94 1020.30 1019.49 1018.75 1018.11 1017.53 1017.12
1004.39 1005.11 1005.93 1006.63 1007.37 1008.09 1009.06 1010.26 1011.23 1012.10 1012.68 1013.42 1014.20 1014.77 1015.37 1016.00 1016.32 1016.88 1017.44 1018.37 1019.22 1019.82 1020.34 1020.75 1021.06 1021.42 1021.81 1022.55 1022.87 1023.03 1022.86 1022.69 1022.54 1022.31 1021.96 1021.29 1020.66 1019.95 1019.41 1018.48 1017.92 1017.48 1016.84
1004.36 1005.28 1006.26 1007.04 1007.89 1008.68 1009.55 1010.49 1011.26 1011.88 1012.75 1013.72 1014.64 1015.43 1015.99 1016.53 1017.05 1018.26 1018.87 1019.61 1020.38 1020.69 1020.95 1021.51 1021.89 1022.34 1022.68 1023.32 1023.56 1023.33 1022.95 1022.71 1022.49 1022.24 1021.65 1020.78 1020.25 1020.02 1019.59 1019.07 1018.43 1017.73 1017.10
1004.62 1005.78 1006.87 1007.73 1008.58 1009.51 1010.37 1011.07 1011.70 1012.35 1013.26 1014.18 1015.20 1015.91 1016.52 1016.97 1017.46 1018.64 1019.69 1020.40 1020.90 1021.39 1021.73 1022.01 1022.40 1022.75 1023.06 1023.44 1023.61 1023.22 1022.77 1022.50 1022.22 1021.95 1021.35 1020.92 1020.77 1020.54 1020.13 1019.65 1018.96 1018.25 1017.42
Wind_Speed
18 15 17 20 17 18 17 18 17 16 10 8 10 10 8 6 7 6 10 11 9 8 6 5 6 5 4 5 5 3 4 2 2 2 3 4 6 5 3 4 4 4 6
18 16 19 19 20 21 20 19 19 18 14 10 11 8 7 7 7 6 8 8 8 9 7 7 6 7 4 6 6 5 3 3 4 3 1 2 1 3 5 3 5 5 2
20 18 19 18 18 21 20 19 21 20 18 16 10 8 7 6 6 6 4 4 6 6 7 8 5 6 5 5 6 5 5 4 2 4 2 1 3 2 3 5 3 5 4
22 20 22 23 22 21 21 21 19 19 19 18 12 12 9 8 6 5 6 8 8 8 8 8 7 5 4 4 5 5 4 3 3 2 2 2 1 0 4 0 4 4 5
20 24 22 21 22 20 20 18 20 21 19 16 10 10 7 5 6 8 8 9 9 6 6 5 6 5 4 4 6 5 6 3 4 2 2 3 4 4 4 4 4 3 4
21 22 22 20 19 17 18 19 20 20 18 16 14 8 7 7 4 3 6 5 4 6 7 5 5 5 5 5 5 5 6 5 5 2 1 2 1 1 2 2 3 3 3
18 19 22 21 19 20 19 15 17 16 14 17 18 13 9 12 8 5 5 6 2 3 6 7 6 4 3 1 2 5 6 5 4 2 4 2 2 2 3 2 3 3 4
17 19 20 21 20 20 20 19 19 19 16 14 11 13 17 6 6 7 6 7 9 11 6 5 5 5 6 5 5 6 5 5 3 7 4 2 3 3 4 2 2 4 3
14 18 19 20 22 21 21 21 19 18 16 17 15 17 13 6 5 5 6 5 5 6 6 4 7 6 7 7 6 5 6 5 5 5 3 3 1 3 3 4 3 3 2
4 8 17 17 18 20 22 22 22 21 20 15 14 13 13 9 7 6 8 7 5 6 7 7 7 6 7 7 8 6 6 6 2 3 5 5 4 4 4 3 3 4 4
7 2 5 2 12 15 22 23 21 19 14 11 12 11 12 12 7 5 6 6 6 8 9 9 8 8 8 8 7 6 7 7 6 5 5 5 8 6 4 4 3 4 4
1 8 2 2 3 4 3 17 16 16 12 14 14 12 10 7 7 6 5 5 9 8 9 9 8 6 9 8 7 7 6 8 6 5 2 8 6 7 6 4 6 5 5
5 6 8 5 4 1 1 6 6 6 12 11 13 10 8 6 7 6 6 6 6 6 5 7 8 8 8 8 6 3 6 8 6 5 5 5 8 9 7 8 5 5 8
8 5 9 8 7 6 5 5 5 4 9 10 10 11 10 9 8 7 7 6 6 7 7 6 6 7 9 8 8 9 8 5 5 7 4 7 9 11 10 8 8 9 9
4 5 6 10 10 7 7 6 10 6 9 14 12 11 9 9 9 8 7 7 6 6 8 8 8 9 9 8 8 7 6 5 7 4 5 8 13 16 13 9 8 7 7
6 6 6 12 14 11 10 9 9 6 7 13 13 11 11 11 9 8 10 9 9 8 7 7 6 6 4 9 7 5 4 2 1 4 7 10 14 16 17 16 17 14 12
5 4 5 9 11 10 12 10 9 7 10 10 10 10 10 9 9 8 8 8 8 7 7 6 6 6 4 11 8 4 1 2 4 7 9 10 8 9 8 9 10 13 17
8 5 5 8 10 11 11 11 11 10 11 11 10 10 10 10 9 8 9 7 7 7 6 6 5 4 6 7 7 5 4 5 7 8 7 7 8 7 8 8 8 9 8
8 7 6 8 10 12 12 12 12 12 12 12 11 11 11 11 11 10 9 8 7 6 6 6 6 4 5 11 10 7 4 4 5 6 7 8 10 13 18 12 12 15 13
10 11 11 11 11 11 12 12 13 13 12 12 12 11 10 10 10 8 7 5 5 5 5 6 5 5 8 12 13 5 3 5 4 5 8 12 13 16 16 10 11 13 12
13 13 12 11 12 13 13 12 11 11 12 11 10 10 10 9 9 8 7 7 5 7 6 6 5 5 13 10 15 14 5 2 3 4 5 5 15 20 24 25 14 15 13
15 15 12 11 11 12 11 13 12 12 12 11 10 10 10 8 8 7 5 5 6 6 5 5 4 4 8 12 12 14 12 10 4 6 6 8 19 25 26 21 24 25 17
13 13 12 12 11 11 11 13 12 12 12 11 11 9 8 7 6 6 5 5 6 5 4 3 2 3 3 5 15 14 14 10 6 6 11 21 24 25 18 20 21 17 9
14 12 13 13 11 10 11 12 12 11 10 10 9 8 7 6 5 5 4 6 5 4 3 3 3 3 4 7 6 6 6 8 8 9 10 13 16 11 11 10 11 9 9
13 12 12 11 12 11 12 12 11 11 11 10 8 7 4 6 7 9 6 7 6 5 2 4 4 3 3 5 8 9 6 6 8 10 8 8 4 8 9 10 10 11 9
12 11 11 11 11 11 10 10 9 9 9 10 7 5 4 4 6 7 6 12 11 10 11 9 5 3 6 8 11 13 14 16 17 7 6 4 4 7 9 10 11 10 13
Wind_Direction
151 164 151 156 162 160 174 173 176 188 192 197 201 225 197 198 218 208 208 181 181 177 180 218 169 174 211 183 173 155 155 230 95 5 277 238 191 193 212 191 192 209 160
154 165 160 164 172 170 180 181 183 191 198 198 209 213 193 203 217 217 195 163 190 177 186 223 181 179 216 174 163 156 164 223 164 188 282 288 292 211 209 222 192 194 197
168 174 171 182 177 176 185 191 186 191 201 203 213 215 187 193 207 207 169 166 189 207 197 201 204 173 201 175 160 172 195 193 167 183 144 279 237 20 180 209 215 170 175
171 182 185 186 189 190 189 194 186 191 199 202 209 208 196 198 194 205 178 188 190 216 231 196 190 181 184 174 163 177 201 209 194 100 140 240 326 298 344 53 229 197 173
180 178 190 191 188 189 184 191 192 196 197 201 200 215 187 200 206 193 180 169 173 191 240 211 192 201 161 190 177 184 184 189 128 137 151 228 198 215 186 261 307 233 208
182 179 185 190 193 191 186 191 200 200 195 189 208 196 226 205 234 209 187 167 169 179 187 230 191 173 177 209 186 164 144 119 104 81 266 226 230 271 258 270 267 286 289
182 180 182 187 191 192 192 196 199 209 202 186 197 206 178 215 215 232 149 130 127 317 237 193 184 176 161 190 136 104 105 118 110 198 228 270 306 58 22 322 279 296 280
180 183 185 186 191 194 191 192 195 202 204 200 173 175 213 221 214 196 168 167 169 205 205 186 152 158 139 125 125 119 108 109 146 223 241 109 63 32 281 258 272 277 281
187 188 190 188 189 189 192 192 196 199 205 198 179 185 190 215 247 184 195 183 169 190 178 161 145 155 141 143 133 120 115 136 213 209 102 95 53 259 270 260 236 220 257
308 219 200 195 194 191 190 189 193 197 196 200 182 193 191 218 205 180 174 183 172 192 153 147 157 155 149 142 133 132 152 185 170 89 64 9 310 284 258 256 243 224 221
138 323 326 254 205 193 182 188 185 196 193 179 168 178 193 201 189 174 174 173 169 163 152 161 169 169 157 139 139 153 156 154 129 83 51 336 276 269 273 270 256 247 231
110 146 196 31 354 3 133 167 179 190 163 168 175 193 197 186 158 173 149 154 154 149 155 169 174 164 145 147 150 158 169 142 130 110 187 256 270 273 264 255 242 246 253
231 151 141 155 159 150 220 119 145 183 162 175 165 176 161 107 111 101 103 121 126 147 136 132 140 153 136 139 135 134 138 131 149 185 228 265 282 280 274 264 254 260 264
174 201 153 165 155 157 149 131 141 165 136 149 120 113 112 114 109 104 102 101 104 107 113 127 133 130 135 132 158 155 163 172 183 214 225 263 275 273 270 271 264 257 254
225 208 198 152 140 127 119 123 77 64 82 116 116 120 130 130 127 132 133 129 134 122 120 123 128 140 151 161 155 163 166 193 221 214 244 266 275 268 261 266 263 268 272
214 217 194 157 139 154 136 121 125 127 110 110 116 121 123 137 153 152 150 145 134 130 124 125 122 115 134 136 150 166 217 178 337 272 269 269 272 263 251 251 253 251 256
127 186 214 115 125 129 124 132 127 125 107 106 109 109 108 104 105 107 107 100 109 107 107 114 128 150 187 160 171 154 68 276 267 267 269 272 288 296 296 288 275 264 258
152 168 120 123 119 129 131 129 132 126 128 121 119 117 120 124 117 124 112 112 110 120 134 149 165 140 109 140 165 179 231 242 241 248 276 295 298 296 308 309 293 285 284
132 135 131 128 126 125 138 137 135 130 128 133 135 135 139 138 131 123 125 135 137 135 95 98 111 126 182 174 185 183 240 307 323 320 316 327 332 337 341 329 321 308 294
146 149 140 135 138 142 139 140 139 141 137 138 136 135 132 126 115 112 110 91 110 129 152 167 181 125 71 71 72 38 34 14 4 336 322 317 312 319 338 336 323 307 303
147 144 152 151 148 148 147 145 138 135 133 128 120 112 108 114 132 138 155 164 149 106 83 87 69 68 110 84 80 60 60 44 322 321 319 320 319 324 318 310 300 287 291
159 160 159 154 151 152 147 141 136 123 116 113 114 132 146 146 136 120 106 112 105 110 118 101 81 88 95 97 73 54 38 5 348 327 315 311 315 307 304 301 290 284 286
161 169 155 150 151 152 143 136 130 133 135 151 138 128 131 125 126 117 132 100 91 88 90 88 94 84 82 98 52 29 9 352 332 315 318 317 309 307 301 291 287 287 275
178 164 155 152 146 137 132 133 139 151 139 130 130 131 115 114 105 102 74 81 59 62 71 66 52 49 34 46 28 7 345 338 334 330 314 299 292 300 321 331 334 336 324
171 162 158 152 149 149 132 145 151 145 140 131 122 99 116 116 90 62 48 87 57 54 25 54 44 44 33 39 1 343 332 323 317 311 296 302 328 334 337 333 331 328 333
157 152 152 147 140 130 132 131 141 139 127 117 108 108 99 73 112 119 95 69 119 112 103 98 85 85 76 15 345 335 327 321 311 299 305 333 336 334 334 332 331 330 337